[[{"header":{"parameterUnit":"m.s-1","parameterCategory":1,"la1":30.2991,"la2":30.254,"lo1":-89.0895,"lo2":-89.0444,"dy":0.0017,"dx":0.0017,"nx":28,"ny":28,"refTime":"2024-03-28T09:00:00:Z","depth":0,"parameterNumber":2,"parameterNumberName":"U-component_of_WINDS"},"data":[0,0,0,0,0,0,0,0,0,0,0,0,0,0,0,0,0,0,0,0,0,0,0,0,0,0,0,0,0,0,0,0,0,0,0,0,0,0,0,0,0,0,0,0,0,0,0,0,0,0,0,0,0,0,0,0,0,0,-1.0304,-1.0305,0,-1.0318,-1.0318,-1.0318,-1.0306,-1.0305,-1.0304,-1.0304,-1.032,-1.032,-1.0321,0,0,0,0,0,0,0,0,0,0,0,0,0,-1.0269,-1.027,-1.0304,-1.0305,-1.0305,-1.0318,-1.0318,-1.0318,-1.0306,-1.0305,-1.0304,-1.0304,-1.0319,-1.032,-1.0321,0,0,0,0,0,0,0,0,0,0,0,0,0,-1.0284,-1.027,-1.0304,-1.03,-1.03,-1.0318,-1.0318,-1.0319,-1.0306,-1.0305,-1.0304,-1.0303,-1.0319,-1.032,-1.0322,-1.0346,0,0,-1.0326,-1.0326,0,0,0,0,0,0,0,0,-1.0283,-1.0285,-1.03,-1.03,-1.03,-1.0309,-1.0312,-1.0328,-1.0306,-1.0303,-1.0304,-1.0303,-1.0317,-1.0318,-1.0323,-1.0346,-1.0347,-1.0326,-1.0327,-1.0327,-1.0328,0,0,0,0,0,0,0,-1.0282,-1.0284,-1.031,-1.0301,-1.03,-1.0298,-1.0299,-1.0315,-1.0314,-1.0304,-1.0303,-1.0304,-1.0317,-1.0321,-1.0323,-1.0347,-1.0326,-1.0327,-1.0328,-1.0328,-1.0392,-1.0393,0,0,0,0,0,0,-1.0281,-1.0284,-1.0309,-1.031,-1.0289,-1.0299,-1.03,-1.0307,-1.0314,-1.0315,-1.0305,-1.0304,-1.0319,-1.0321,-1.0323,-1.0353,-1.0327,-1.0328,-1.0329,-1.0391,-1.0392,-1.0393,0,0,0,0,0,0,-1.028,-1.0284,-1.0309,-1.0297,-1.03,-1.0301,-1.0308,-1.0308,-1.0313,-1.0315,-1.0315,-1.031,-1.0319,-1.0322,-1.034,-1.0353,-1.0329,-1.033,-1.039,-1.0392,-1.0393,-1.0411,0,0,0,0,0,0,-1.028,-1.0283,-1.0292,-1.0297,-1.03,-1.0325,-1.0309,-1.0309,-1.0315,-1.0313,-1.032,-1.032,-1.0318,-1.0338,-1.0342,-1.0354,-1.0331,-1.0389,-1.0391,-1.0393,-1.0409,-1.0413,-1.0416,0,0,0,0,0,-1.0278,-1.0297,-1.0293,-1.0296,-1.0311,-1.0326,-1.0328,-1.0325,-1.0316,-1.0325,-1.0327,-1.032,-1.0351,-1.034,-1.0344,-1.0357,-1.0388,-1.039,-1.0392,-1.0408,-1.0412,-1.0416,0,0,0,0,0,0,-1.0294,-1.0297,-1.0293,-1.0313,-1.0319,-1.0323,-1.0335,-1.0329,-1.0339,-1.0337,-1.0333,-1.0335,-1.0355,-1.0358,-1.0346,-1.0382,-1.0368,-1.0371,-1.0379,-1.0383,-1.0386,-1.0385,-1.0332,0,0,0,0,0,-1.0299,-1.031,-1.0313,-1.0331,-1.0334,-1.0334,-1.034,-1.0338,-1.0344,-1.0347,-1.035,-1.0357,-1.0368,-1.0376,-1.0386,-1.041,-1.0411,-1.0421,-1.0424,-1.0427,-1.0429,-1.0443,-1.0447,-1.04,-1.04,-1.04,0,0,-1.0312,-1.0315,-1.0322,-1.0334,-1.0338,-1.0351,-1.0336,-1.0349,-1.0359,-1.0349,-1.0367,-1.0369,-1.0377,-1.0398,-1.0408,-1.0401,-1.0443,-1.0429,-1.0431,-1.0433,-1.0445,-1.045,-1.0454,-1.0401,-1.0401,-1.0401,0,0,-1.034,-1.0343,-1.0359,-1.0363,-1.037,-1.037,-1.0374,-1.0379,-1.038,-1.0398,-1.0391,-1.0402,-1.0421,-1.0427,-1.0433,-1.0464,-1.0458,-1.0468,-1.0485,-1.0498,-1.0502,-1.0505,-1.0517,-1.0521,-1.047,-1.047,-1.047,0,-1.0354,-1.0371,-1.0367,-1.0381,-1.0387,-1.0378,-1.0395,-1.04,-1.041,-1.0414,-1.0407,-1.0431,-1.0436,-1.0459,-1.0466,-1.0471,-1.0476,-1.0467,-1.0501,-1.0505,-1.0508,-1.0519,-1.0523,-1.0471,-1.0471,-1.0471,-1.0471,0,-1.0389,-1.0401,-1.0413,-1.0423,-1.043,-1.0445,-1.0444,-1.0452,-1.0449,-1.045,-1.0469,-1.0474,-1.0485,-1.0491,-1.0488,-1.0514,-1.0509,-1.0502,-1.0488,-1.0513,-1.0524,-1.0528,-1.0473,-1.0472,-1.0472,-1.0472,0,0,-1.0428,-1.0435,-1.0439,-1.0444,-1.0451,-1.0461,-1.0475,-1.0487,-1.0494,-1.0501,-1.0514,-1.0531,-1.0524,-1.053,-1.0528,-1.054,-1.0565,-1.0531,-1.0531,-1.0538,-1.0595,-1.0601,-1.0606,-1.0561,-1.0562,-1.0563,-1.0595,0,-1.0457,-1.0482,-1.0479,-1.0504,-1.0516,-1.0507,-1.0521,-1.0527,-1.0528,-1.0539,-1.054,-1.0553,-1.0542,-1.0546,-1.0557,-1.056,-1.0577,-1.0557,-1.0574,-1.0575,-1.0573,-1.0612,-1.0618,-1.0648,-1.0599,-1.0599,-1.06,0,-1.0494,-1.0503,-1.0528,-1.0534,-1.0538,-1.055,-1.0561,-1.0571,-1.0578,-1.0578,-1.0585,-1.0581,-1.0597,-1.0583,-1.0606,-1.0592,-1.0599,-1.0602,-1.0603,-1.0605,-1.0589,-1.0615,-1.0657,-1.0662,-1.0606,-1.0606,-1.0605,0,-1.0521,-1.0538,-1.0556,-1.056,-1.0567,-1.0575,-1.0579,-1.0585,-1.0592,-1.0601,-1.0606,-1.0617,-1.0623,-1.0632,-1.0632,-1.0622,-1.0655,-1.0641,-1.0656,-1.0656,-1.0664,-1.0664,-1.0708,-1.0667,-1.0667,-1.0667,-1.0667,0,-1.0554,-1.057,-1.0568,-1.0579,-1.0597,-1.0594,-1.0612,-1.0615,-1.062,-1.0632,-1.0626,-1.0638,-1.0636,-1.0648,-1.0647,-1.0666,-1.0669,-1.067,-1.067,-1.0671,-1.0671,-1.0676,-1.0674,-1.0668,-1.0668,-1.0668,-1.0668,0,-1.0587,-1.0586,-1.0605,-1.061,-1.0611,-1.0625,-1.0629,-1.064,-1.0641,-1.0656,-1.0659,-1.0661,-1.0675,-1.0675,-1.069,-1.069,-1.0714,-1.0711,-1.0711,-1.0711,-1.0727,-1.0726,-1.0777,-1.0784,-1.0738,-1.0738,-1.0738,0,-1.0609,-1.0621,-1.0627,-1.0634,-1.0638,-1.065,-1.0657,-1.0654,-1.0662,-1.0671,-1.0681,-1.0694,-1.0704,-1.0726,-1.0729,-1.0742,-1.0739,-1.0756,-1.0741,-1.0742,-1.0741,-1.074,-1.0742,-1.076,-1.076,-1.0761,-1.0761,0,-1.0648,-1.0647,-1.0657,-1.0667,-1.0675,-1.0683,-1.0691,-1.0697,-1.0695,-1.0705,-1.0718,-1.0726,-1.0742,-1.0755,-1.0767,-1.0771,-1.0766,-1.0766,-1.077,-1.0772,-1.0772,-1.0773,-1.072,-1.0765,-1.0764,-1.0764,-1.0764,-1.0764,-1.0676,-1.0687,-1.0693,-1.0704,-1.0709,-1.0717,-1.0727,-1.0729,-1.074,-1.0752,-1.075,-1.0766,-1.0773,-1.0788,-1.0794,-1.0806,-1.08,-1.0806,-1.0808,-1.081,-1.0812,-1.0769,-1.0808,-1.0808,-1.0808,-1.0808,-1.0808,0,-1.0715,-1.0719,-1.0729,-1.074,-1.0749,-1.0742,-1.075,-1.0759,-1.0772,-1.0779,-1.0789,-1.0805,-1.0818,-1.0822,-1.0835,-1.0844,-1.0842,-1.0848,-1.0847,-1.0849,-1.0816,-1.0811,-1.0849,-1.0849,-1.0849,-1.0849,-1.0849,-1.0849,-1.0737,-1.0755,-1.0755,-1.0775,-1.0779,-1.0793,-1.0798,-1.0805,-1.0811,-1.0829,-1.0839,-1.0841,-1.0847,-1.086,-1.0872,-1.0873,-1.0879,-1.0885,-1.0885,-1.0855,-1.0851,-1.0847,-1.0842,-1.0886,-1.0886,-1.0917,-1.0917,-1.0917]},{"header":{"parameterUnit":"m.s-1","parameterCategory":1,"la1":30.2991,"la2":30.254,"lo1":-89.0895,"lo2":-89.0444,"dy":0.0017,"dx":0.0017,"nx":28,"ny":28,"refTime":"2024-03-28T09:00:00:Z","depth":0,"parameterNumber":3,"parameterNumberName":"V-component_of_WINDS"},"data":[0,0,0,0,0,0,0,0,0,0,0,0,0,0,0,0,0,0,0,0,0,0,0,0,0,0,0,0,0,0,0,0,0,0,0,0,0,0,0,0,0,0,0,0,0,0,0,0,0,0,0,0,0,0,0,0,0,0,5.0832,5.0833,0,5.0899,5.09,5.0901,5.0844,5.0842,5.084,5.0838,5.0902,5.0906,5.0909,0,0,0,0,0,0,0,0,0,0,0,0,0,5.0649,5.0652,5.0832,5.0833,5.0834,5.0899,5.09,5.0901,5.0845,5.0842,5.0839,5.0836,5.09,5.0905,5.091,0,0,0,0,0,0,0,0,0,0,0,0,0,5.0723,5.0653,5.0832,5.0814,5.0813,5.0899,5.09,5.0901,5.0845,5.0842,5.0838,5.0835,5.0899,5.0905,5.091,5.1017,0,0,5.0928,5.0931,0,0,0,0,0,0,0,0,5.0719,5.073,5.0816,5.0815,5.0814,5.086,5.0859,5.094,5.0846,5.0833,5.0837,5.0833,5.089,5.0897,5.0917,5.102,5.1023,5.0929,5.0932,5.0935,5.0936,0,0,0,0,0,0,0,5.0714,5.0727,5.0858,5.0817,5.0816,5.08,5.0807,5.0874,5.088,5.0834,5.083,5.0839,5.0889,5.0911,5.0918,5.1024,5.0929,5.0934,5.0937,5.094,5.1214,5.1218,0,0,0,0,0,0,5.0711,5.0723,5.0856,5.0861,5.0757,5.0806,5.0814,5.0849,5.088,5.0881,5.0842,5.0836,5.0903,5.0911,5.092,5.1045,5.0935,5.094,5.0944,5.121,5.1215,5.1219,0,0,0,0,0,0,5.0708,5.0724,5.0854,5.0791,5.0806,5.0813,5.0853,5.0852,5.0874,5.0886,5.0886,5.0864,5.0901,5.0912,5.0993,5.1046,5.0943,5.0948,5.1206,5.1212,5.1217,5.1296,0,0,0,0,0,0,5.0703,5.0723,5.0765,5.0792,5.081,5.0927,5.0856,5.0856,5.0885,5.0878,5.0906,5.0907,5.0899,5.0984,5.0999,5.1052,5.0953,5.1201,5.1208,5.1215,5.1289,5.1304,5.1316,0,0,0,0,0,5.0696,5.0784,5.0768,5.0784,5.0863,5.0931,5.094,5.093,5.0889,5.093,5.0938,5.0907,5.1038,5.0993,5.1009,5.1065,5.1197,5.1206,5.1214,5.1282,5.1301,5.1316,0,0,0,0,0,0,5.0762,5.0787,5.0769,5.0869,5.0898,5.0921,5.0973,5.095,5.099,5.0982,5.0966,5.0973,5.1058,5.1069,5.1019,5.1168,5.1111,5.1123,5.1157,5.1175,5.1188,5.1183,5.0958,0,0,0,0,0,5.0788,5.0843,5.0862,5.0948,5.0964,5.0966,5.0995,5.0985,5.1013,5.1025,5.1038,5.1066,5.1113,5.1145,5.1189,5.129,5.1294,5.1336,5.135,5.1362,5.1372,5.1423,5.1441,5.1247,5.1247,5.1247,0,0,5.0843,5.0863,5.0899,5.0961,5.0983,5.1038,5.0977,5.1038,5.1078,5.1034,5.1111,5.1122,5.1151,5.1242,5.1283,5.1255,5.1426,5.1373,5.1382,5.1385,5.1434,5.1452,5.1469,5.1253,5.1251,5.1251,0,0,5.0969,5.0992,5.1065,5.1088,5.1121,5.1122,5.1139,5.1166,5.1171,5.1249,5.1216,5.1263,5.1345,5.1367,5.1389,5.1523,5.1495,5.1538,5.161,5.166,5.1676,5.1689,5.1734,5.1751,5.1548,5.1548,5.1548,0,5.1032,5.1116,5.1105,5.1168,5.1195,5.116,5.1232,5.1254,5.13,5.1318,5.1286,5.1388,5.1406,5.15,5.1532,5.1552,5.157,5.1534,5.1675,5.1688,5.17,5.1743,5.1761,5.1553,5.1552,5.1552,5.1551,0,5.119,5.1248,5.1303,5.1349,5.1382,5.145,5.1447,5.1482,5.1468,5.1471,5.1549,5.1569,5.1616,5.1638,5.1625,5.1729,5.1711,5.1677,5.1619,5.1724,5.1764,5.178,5.156,5.1558,5.1557,5.1555,0,0,5.136,5.1399,5.1419,5.1438,5.1472,5.1516,5.158,5.1627,5.1656,5.1689,5.1741,5.1811,5.178,5.1805,5.1793,5.1838,5.1939,5.1799,5.1799,5.1822,5.2053,5.2077,5.2096,5.1922,5.1925,5.1927,5.205,0,5.1487,5.1601,5.1592,5.1699,5.1751,5.1717,5.1773,5.1798,5.1803,5.1846,5.185,5.1899,5.1856,5.187,5.1913,5.1918,5.1985,5.1909,5.1968,5.197,5.196,5.2118,5.2144,5.2258,5.2066,5.2068,5.207,0,5.165,5.1689,5.1801,5.1825,5.1847,5.1897,5.1938,5.1981,5.2008,5.2008,5.2035,5.2016,5.2079,5.2021,5.2105,5.2054,5.2077,5.2083,5.2087,5.209,5.2025,5.2124,5.2295,5.2312,5.2095,5.2093,5.2092,0,5.176,5.184,5.1917,5.1935,5.1966,5.2002,5.2016,5.204,5.2068,5.2103,5.212,5.2163,5.2185,5.2217,5.2208,5.2167,5.2294,5.2236,5.2294,5.2294,5.2321,5.2319,5.2496,5.2339,5.2339,5.2338,5.2338,0,5.1902,5.1971,5.1967,5.2014,5.209,5.2078,5.2153,5.2162,5.2184,5.223,5.2203,5.2247,5.2235,5.2277,5.2271,5.2341,5.2351,5.2351,5.2348,5.2353,5.2353,5.2367,5.2358,5.2343,5.2342,5.2341,5.234,0,5.2037,5.2038,5.2119,5.2141,5.2148,5.2203,5.222,5.2264,5.2266,5.2325,5.2338,5.2341,5.2389,5.2385,5.2439,5.2435,5.252,5.2509,5.2512,5.2508,5.2566,5.256,5.2757,5.2781,5.261,5.2612,5.2613,0,5.2127,5.2179,5.2207,5.2237,5.2254,5.2302,5.2331,5.232,5.2351,5.2384,5.2423,5.247,5.2506,5.2585,5.259,5.2631,5.2619,5.2686,5.2625,5.2627,5.2618,5.2614,5.2618,5.2697,5.2699,5.2701,5.2702,0,5.2285,5.2282,5.2325,5.2368,5.2403,5.2435,5.2465,5.2491,5.2483,5.2518,5.2568,5.2596,5.2652,5.2697,5.2736,5.2747,5.2723,5.2721,5.2736,5.274,5.2739,5.2738,5.2542,5.2716,5.2715,5.2714,5.2713,5.2712,5.2399,5.2443,5.2469,5.2517,5.2538,5.2566,5.2607,5.2615,5.2657,5.2702,5.2693,5.2748,5.2771,5.2821,5.2837,5.2878,5.2854,5.2877,5.2882,5.2887,5.2893,5.2734,5.2885,5.2885,5.2885,5.2884,5.2884,0,5.2553,5.2568,5.2613,5.2655,5.2692,5.2667,5.2698,5.273,5.278,5.2805,5.2841,5.2897,5.2941,5.295,5.2991,5.3022,5.3012,5.3033,5.303,5.3033,5.2913,5.2895,5.3041,5.3041,5.3041,5.3041,5.3041,5.3041,5.2638,5.2711,5.2711,5.2794,5.2807,5.2862,5.2882,5.2907,5.2926,5.299,5.3027,5.3033,5.305,5.3092,5.313,5.3131,5.3147,5.3172,5.3169,5.3057,5.3041,5.3026,5.3009,5.3176,5.3176,5.3284,5.3285,5.3286]}]]